Regional Weather Roundup
Issued by NWS

Home | Current Version | Previous Version | Text Only | Print | Product List | Glossary On
Versions: 1 2 3 4 5 6 7 8 9 10 11 12 13 14 15 16 17 18 19 20 21 22 23 24 25 26 27 28 29 30 31 32 33 34 35 36 37 38 39 40 41 42 43 44 45 46 47 48 49 50
000
ASUS44 KBMX 020310
RWRAL

ALABAMA REGIONAL WEATHER ROUNDUP
NATIONAL WEATHER SERVICE BIRMINGHAM AL
1000 PM CDT WED JUL 01 2015

NOTE: "FAIR" INDICATES FEW OR NO CLOUDS BELOW 12,000 FEET
WITH NO SIGNIFICANT WEATHER AND/OR OBSTRUCTIONS TO VISIBILITY.

THE REMARK "TC" DENOTES TEMPERATURE IN DEGREES CELSIUS.

ALZ001>011-014-016>018-020-020400-
NORTH ALABAMA

CITY           SKY/WX    TMP DP  RH WIND       PRES   REMARKS
MUSCLE SHOALS  MOCLDY    73  69  87 S5        30.01S
HUNTSVILLE     CLOUDY    72  67  84 SE5       30.03R
DECATUR        CLOUDY    70  68  93 S6        30.03R FOG
HALEYVILLE     FAIR      71  71 100 S6        30.05F
GADSDEN        CLOUDY   N/A N/A N/A SW3       30.03S
$$

ALZ012-013-022-023-030>036-040>044-020400-
WEST CENTRAL ALABAMA

CITY           SKY/WX    TMP DP  RH WIND       PRES   REMARKS
TUSCALOOSA     CLOUDY    79  72  79 N3        30.02F
$$

ALZ015-024>027-033>036-040>044-020400-
CENTRAL ALABAMA

CITY           SKY/WX    TMP DP  RH WIND       PRES   REMARKS
BIRMINGHAM     CLOUDY    73  70  90 S6        30.05F
MONTGOMERY     MOCLDY    81  72  74 SW7       30.06R
SHELBY CO ARPT TSTM      72  69  90 S6        30.07F
MAXWELL AFB    CLOUDY    80  74  83 S3        30.05R
GREENVILLE     FAIR      75  68  78 SW7       30.08S
$$

ALZ019-021-028-029-037-038-045>048-020400-
EAST CENTRAL ALABAMA

CITY           SKY/WX    TMP DP  RH WIND       PRES   REMARKS
ANNISTON       CLOUDY    71  69  93 CALM      30.05S
ALEXANDER CITY TSTM      67  63  86 CALM      30.11F
AUBURN         CLOUDY    75  70  83 N8        30.12R
$$

ALZ051>064-020400-
SOUTHWEST ALABAMA

CITY           SKY/WX    TMP DP  RH WIND       PRES   REMARKS
MOBILE         CLOUDY    74  71  91 CALM      30.11R
BROOKLEY FIELD CLOUDY    74  72  93 CALM      30.11R
EVERGREEN      MOCLDY    74  70  87 CALM      30.10R
$$

ALZ049-050-065>069-020400-
SOUTHEAST ALABAMA

CITY           SKY/WX    TMP DP  RH WIND       PRES   REMARKS
DOTHAN         PTCLDY    81  71  71 W15G26    30.12R
OZARK          PTCLDY    79  69  72 W10       30.09R
TROY           PTCLDY    80  69  69 SW8       30.08S
EUFAULA        FAIR      75  70  84 CALM      30.06S
$$


USA.gov is the U.S. government's official web portal to all federal, state and local government web resources and services.